Time,TemperatureF,DewpointF,PressureIn,WindDirection,WindDirectionDegrees,WindSpeedMPH,WindSpeedGustMPH,Humidity,HourlyPrecipIn,Conditions,Clouds,dailyrainin,SoftwareType,DateUTC
2013-06-16 00:00:00,62.3,57.7,30.05,WNW,302,0.0,0.0,85,0.00,SCT,,0.00,WeatherDisplay:10.37,2013-06-16 04:00:00,
2013-06-16 00:15:00,61.7,57.5,30.04,WNW,302,0.0,0.0,86,0.00,SCT,,0.00,WeatherDisplay:10.37,2013-06-16 04:15:00,
2013-06-16 00:30:00,61.2,57.0,30.04,WNW,302,0.0,0.0,86,0.00,SCT,,0.00,WeatherDisplay:10.37,2013-06-16 04:30:00,
2013-06-16 00:44:00,60.7,56.5,30.04,WNW,302,0.0,0.0,86,0.00,SCT,,0.00,WeatherDisplay:10.37,2013-06-16 04:44:00,
2013-06-16 01:00:00,60.2,56.0,30.04,WNW,302,0.0,0.0,86,0.00,SCT,,0.00,WeatherDisplay:10.37,2013-06-16 05:00:00,
2013-06-16 01:15:00,59.8,55.6,30.04,WNW,302,0.0,0.0,86,0.00,SCT,,0.00,WeatherDisplay:10.37,2013-06-16 05:15:00,
2013-06-16 01:30:00,59.3,55.1,30.03,WNW,302,0.0,0.0,86,0.00,SCT,,0.00,WeatherDisplay:10.37,2013-06-16 05:30:00,
2013-06-16 01:45:00,59.0,55.1,30.03,WNW,302,0.0,0.0,87,0.00,BKN,,0.00,WeatherDisplay:10.37,2013-06-16 05:45:00,
2013-06-16 02:00:00,58.7,54.8,30.03,WNW,302,0.0,1.0,87,0.00,BKN,,0.00,WeatherDisplay:10.37,2013-06-16 06:00:00,
2013-06-16 02:15:00,58.4,54.5,30.03,WNW,302,0.0,1.0,87,0.00,BKN,,0.00,WeatherDisplay:10.37,2013-06-16 06:15:00,
2013-06-16 02:30:00,58.2,54.3,30.03,WNW,302,0.0,0.0,87,0.00,BKN,,0.00,WeatherDisplay:10.37,2013-06-16 06:30:00,
2013-06-16 02:45:00,57.9,54.1,30.03,WNW,302,0.0,0.0,87,0.00,CLR,,0.00,WeatherDisplay:10.37,2013-06-16 06:45:00,
2013-06-16 03:00:00,57.6,53.8,30.03,WNW,302,0.0,0.0,87,0.00,CLR,,0.00,WeatherDisplay:10.37,2013-06-16 07:00:00,
2013-06-16 03:15:00,57.4,53.5,30.02,WNW,302,0.0,1.0,87,0.00,CLR,,0.00,WeatherDisplay:10.37,2013-06-16 07:15:00,
2013-06-16 03:30:00,57.1,53.6,30.03,WNW,302,0.0,0.0,88,0.00,CLR,,0.00,WeatherDisplay:10.37,2013-06-16 07:30:00,
2013-06-16 03:44:00,56.9,53.1,30.02,WNW,302,0.0,0.0,87,0.00,CLR,,0.00,WeatherDisplay:10.37,2013-06-16 07:44:00,
2013-06-16 04:00:00,56.8,53.3,30.03,WNW,302,0.0,1.0,88,0.00,CLR,,0.00,WeatherDisplay:10.37,2013-06-16 08:00:00,
2013-06-16 04:15:00,56.7,53.2,30.03,WNW,302,0.0,1.0,88,0.00,CLR,,0.00,WeatherDisplay:10.37,2013-06-16 08:15:00,
2013-06-16 04:30:00,56.5,53.0,30.04,WNW,302,0.0,0.0,88,0.00,CLR,,0.00,WeatherDisplay:10.37,2013-06-16 08:30:00,
2013-06-16 04:44:00,56.4,52.9,30.04,WNW,302,0.0,0.0,88,0.00,CLR,,0.00,WeatherDisplay:10.37,2013-06-16 08:44:00,
2013-06-16 04:59:00,56.2,52.7,30.04,WNW,302,0.0,0.0,88,0.00,CLR,,0.00,WeatherDisplay:10.37,2013-06-16 08:59:00,
2013-06-16 05:15:00,56.1,52.6,30.04,WNW,302,0.0,0.0,88,0.00,CLR,,0.00,WeatherDisplay:10.37,2013-06-16 09:15:00,
2013-06-16 05:30:00,55.9,52.4,30.05,WNW,302,0.0,0.0,88,0.00,CLR,,0.00,WeatherDisplay:10.37,2013-06-16 09:30:00,
2013-06-16 05:45:00,55.6,52.1,30.05,WNW,302,0.0,0.0,88,0.00,CLR,,0.00,WeatherDisplay:10.37,2013-06-16 09:45:00,
2013-06-16 06:00:00,55.4,51.9,30.06,WNW,302,0.0,0.0,88,0.00,CLR,,0.00,WeatherDisplay:10.37,2013-06-16 10:00:00,
2013-06-16 06:14:00,55.2,51.7,30.07,WNW,302,0.0,0.0,88,0.00,CLR,,0.00,WeatherDisplay:10.37,2013-06-16 10:14:00,
2013-06-16 06:30:00,54.9,51.4,30.07,WNW,302,0.0,1.0,88,0.00,CLR,,0.00,WeatherDisplay:10.37,2013-06-16 10:30:00,
2013-06-16 06:44:00,54.7,51.2,30.08,WNW,302,0.0,0.0,88,0.00,CLR,,0.00,WeatherDisplay:10.37,2013-06-16 10:44:00,
2013-06-16 06:59:00,54.8,51.3,30.07,WNW,302,0.0,0.0,88,0.00,CLR,,0.00,WeatherDisplay:10.37,2013-06-16 10:59:00,
2013-06-16 07:15:00,55.4,52.2,30.08,WNW,302,0.0,0.0,89,0.00,CLR,,0.00,WeatherDisplay:10.37,2013-06-16 11:15:00,
2013-06-16 07:30:00,56.3,53.1,30.08,WNW,302,0.0,0.0,89,0.00,CLR,,0.00,WeatherDisplay:10.37,2013-06-16 11:30:00,
2013-06-16 07:45:00,57.5,54.3,30.08,WNW,302,0.0,0.0,89,0.00,CLR,,0.00,WeatherDisplay:10.37,2013-06-16 11:45:00,
2013-06-16 07:59:00,59.0,55.8,30.08,WNW,302,0.0,0.0,89,0.00,CLR,,0.00,WeatherDisplay:10.37,2013-06-16 11:59:00,
2013-06-16 08:15:00,60.0,56.8,30.08,WNW,302,0.0,0.0,89,0.00,CLR,,0.00,WeatherDisplay:10.37,2013-06-16 12:15:00,
2013-06-16 08:29:00,61.1,57.8,30.08,WNW,302,0.0,0.0,89,0.00,CLR,,0.00,WeatherDisplay:10.37,2013-06-16 12:29:00,
2013-06-16 08:45:00,62.4,58.8,30.08,NNW,341,0.0,0.0,88,0.00,CLR,,0.00,WeatherDisplay:10.37,2013-06-16 12:45:00,
2013-06-16 08:59:00,64.6,60.3,30.08,NNE,27,0.0,0.0,86,0.00,CLR,,0.00,WeatherDisplay:10.37,2013-06-16 12:59:00,
2013-06-16 09:15:00,67.2,61.8,30.07,NE,43,0.0,0.0,83,0.00,CLR,,0.00,WeatherDisplay:10.37,2013-06-16 13:15:00,
2013-06-16 09:29:00,67.9,61.5,30.07,NE,48,0.0,0.0,80,0.00,CLR,,0.00,WeatherDisplay:10.37,2013-06-16 13:29:00,
2013-06-16 09:45:00,68.6,61.5,30.06,ENE,58,0.0,4.0,78,0.00,CLR,,0.00,WeatherDisplay:10.37,2013-06-16 13:45:00,
2013-06-16 09:59:00,69.7,61.8,30.06,ENE,72,0.0,3.0,76,0.00,CLR,,0.00,WeatherDisplay:10.37,2013-06-16 13:59:00,
2013-06-16 10:14:00,71.3,60.6,30.06,East,85,0.0,6.0,69,0.00,CLR,,0.00,WeatherDisplay:10.37,2013-06-16 14:14:00,
2013-06-16 10:29:00,72.2,61.9,30.05,ENE,65,1.0,9.0,70,0.00,CLR,,0.00,WeatherDisplay:10.37,2013-06-16 14:29:00,
2013-06-16 10:45:00,72.9,61.7,30.05,ENE,62,3.0,7.0,68,0.00,CLR,,0.00,WeatherDisplay:10.37,2013-06-16 14:45:00,
2013-06-16 11:00:00,73.6,63.6,30.05,ENE,58,0.0,5.0,71,0.00,CLR,,0.00,WeatherDisplay:10.37,2013-06-16 15:00:00,
2013-06-16 11:14:00,74.8,63.1,30.04,ENE,73,3.0,8.0,67,0.00,CLR,,0.00,WeatherDisplay:10.37,2013-06-16 15:14:00,
2013-06-16 11:30:00,75.6,63.9,30.04,ENE,68,1.0,6.0,67,0.00,CLR,,0.00,WeatherDisplay:10.37,2013-06-16 15:30:00,
2013-06-16 11:44:00,76.4,63.8,30.03,ENE,74,0.0,7.0,65,0.00,CLR,,0.00,WeatherDisplay:10.37,2013-06-16 15:44:00,
2013-06-16 11:59:00,76.8,62.8,30.03,WNW,286,0.0,9.0,62,0.00,CLR,,0.00,WeatherDisplay:10.37,2013-06-16 15:59:00,
2013-06-16 12:14:00,76.8,63.2,30.03,NE,45,0.0,2.0,63,0.00,CLR,,0.00,WeatherDisplay:10.37,2013-06-16 16:14:00,
2013-06-16 12:30:00,78.0,63.5,30.02,East,80,0.0,4.0,61,0.00,CLR,,0.00,WeatherDisplay:10.37,2013-06-16 16:30:00,
2013-06-16 12:44:00,76.1,63.5,30.02,East,88,0.0,5.0,65,0.00,CLR,,0.00,WeatherDisplay:10.37,2013-06-16 16:44:00,
2013-06-16 13:00:00,77.5,62.9,30.01,NE,55,0.0,6.0,61,0.00,CLR,,0.00,WeatherDisplay:10.37,2013-06-16 17:00:00,
2013-06-16 13:14:00,78.2,65.9,30.00,NE,49,0.0,5.0,66,0.00,CLR,,0.00,WeatherDisplay:10.37,2013-06-16 17:14:00,
2013-06-16 13:29:00,77.9,62.4,30.00,East,84,1.0,4.0,59,0.00,CLR,,0.00,WeatherDisplay:10.37,2013-06-16 17:29:00,
2013-06-16 13:45:00,79.1,63.1,30.00,NE,46,0.0,7.0,58,0.00,BKN,,0.00,WeatherDisplay:10.37,2013-06-16 17:45:00,
2013-06-16 14:00:00,79.9,62.8,29.99,NW,314,1.0,6.0,56,0.00,BKN,,0.00,WeatherDisplay:10.37,2013-06-16 18:00:00,
2013-06-16 14:14:00,80.3,62.1,29.99,East,85,0.0,10.0,54,0.00,BKN,,0.00,WeatherDisplay:10.37,2013-06-16 18:14:00,
2013-06-16 14:29:00,80.3,64.2,29.98,NNE,27,0.0,10.0,58,0.00,BKN,,0.00,WeatherDisplay:10.37,2013-06-16 18:29:00,
2013-06-16 14:45:00,80.1,61.4,29.98,ENE,57,0.0,5.0,53,0.00,CLR,,0.00,WeatherDisplay:10.37,2013-06-16 18:45:00,
2013-06-16 15:00:00,78.9,60.8,29.97,NNE,21,0.0,4.0,54,0.00,CLR,,0.00,WeatherDisplay:10.37,2013-06-16 19:00:00,
2013-06-16 15:14:00,79.9,63.3,29.97,North,2,0.0,1.0,57,0.00,CLR,,0.00,WeatherDisplay:10.37,2013-06-16 19:14:00,
2013-06-16 15:29:00,79.1,64.5,29.97,NE,56,0.0,6.0,61,0.00,CLR,,0.00,WeatherDisplay:10.37,2013-06-16 19:29:00,
2013-06-16 15:45:00,80.6,64.5,29.96,NE,54,0.0,1.0,58,0.00,BKN,,0.00,WeatherDisplay:10.37,2013-06-16 19:45:00,
2013-06-16 16:00:00,81.3,62.5,29.96,ENE,76,0.0,3.0,53,0.00,BKN,,0.00,WeatherDisplay:10.37,2013-06-16 20:00:00,
2013-06-16 16:14:00,80.7,64.5,29.96,NE,45,0.0,4.0,58,0.00,BKN,,0.00,WeatherDisplay:10.37,2013-06-16 20:14:00,
2013-06-16 16:29:00,78.3,66.5,29.96,WNW,302,0.0,1.0,67,0.00,BKN,,0.00,WeatherDisplay:10.37,2013-06-16 20:29:00,
2013-06-16 16:44:00,76.6,65.3,29.96,WNW,302,0.0,0.0,68,0.00,BKN,,0.00,WeatherDisplay:10.37,2013-06-16 20:44:00,
2013-06-16 16:59:00,76.5,66.4,29.95,WNW,302,0.0,0.0,71,0.00,BKN,,0.00,WeatherDisplay:10.37,2013-06-16 20:59:00,
2013-06-16 17:14:00,79.4,68.3,29.95,WNW,302,0.0,0.0,69,0.00,BKN,,0.00,WeatherDisplay:10.37,2013-06-16 21:14:00,
2013-06-16 17:29:00,79.3,70.3,29.94,WNW,302,0.0,0.0,74,0.00,BKN,,0.00,WeatherDisplay:10.37,2013-06-16 21:29:00,
2013-06-16 17:44:00,78.9,68.3,29.94,WNW,302,0.0,0.0,70,0.00,FEW,,0.00,WeatherDisplay:10.37,2013-06-16 21:44:00,
2013-06-16 18:00:00,77.6,66.2,29.94,WNW,302,0.0,0.0,68,0.00,FEW,,0.00,WeatherDisplay:10.37,2013-06-16 22:00:00,
2013-06-16 18:14:00,76.5,66.8,29.93,WNW,297,0.0,3.0,72,0.00,FEW,,0.00,WeatherDisplay:10.37,2013-06-16 22:14:00,
2013-06-16 18:30:00,75.3,67.6,29.94,West,278,1.0,4.0,77,0.00,FEW,,0.00,WeatherDisplay:10.37,2013-06-16 22:30:00,
2013-06-16 18:44:00,76.2,67.7,29.93,WNW,283,0.0,4.0,75,0.00,FEW,,0.00,WeatherDisplay:10.37,2013-06-16 22:44:00,
2013-06-16 19:00:00,75.5,67.0,29.93,NW,320,0.0,1.0,75,0.00,FEW,,0.00,WeatherDisplay:10.37,2013-06-16 23:00:00,
2013-06-16 19:14:00,74.6,67.3,29.94,WNW,284,0.0,4.0,78,0.00,FEW,,0.00,WeatherDisplay:10.37,2013-06-16 23:14:00,
2013-06-16 19:30:00,74.1,66.0,29.94,WNW,290,0.0,7.0,76,0.00,FEW,,0.00,WeatherDisplay:10.37,2013-06-16 23:30:00,
2013-06-16 19:44:00,74.3,65.8,29.94,West,277,0.0,8.0,75,0.00,BKN,,0.00,WeatherDisplay:10.37,2013-06-16 23:44:00,
2013-06-16 19:59:00,74.3,67.0,29.94,West,280,1.0,5.0,78,0.00,BKN,,0.00,WeatherDisplay:10.37,2013-06-16 23:59:00,
2013-06-16 20:14:00,73.8,66.9,29.95,West,273,0.0,5.0,79,0.00,BKN,,0.00,WeatherDisplay:10.37,2013-06-17 00:14:00,
2013-06-16 20:29:00,72.7,66.2,29.95,West,273,0.0,4.0,80,0.00,BKN,,0.00,WeatherDisplay:10.37,2013-06-17 00:29:00,
2013-06-16 20:45:00,71.6,65.8,29.95,West,273,0.0,3.0,82,0.00,SCT,,0.00,WeatherDisplay:10.37,2013-06-17 00:45:00,
2013-06-16 20:59:00,70.8,65.4,29.95,West,273,0.0,1.0,83,0.00,SCT,,0.00,WeatherDisplay:10.37,2013-06-17 00:59:00,
2013-06-16 21:14:00,70.2,65.1,29.95,West,273,0.0,1.0,84,0.00,SCT,,0.00,WeatherDisplay:10.37,2013-06-17 01:14:00,
2013-06-16 21:29:00,69.5,64.5,29.95,West,273,0.0,2.0,84,0.00,SCT,,0.00,WeatherDisplay:10.37,2013-06-17 01:29:00,
2013-06-16 21:44:00,69.4,64.4,29.95,West,267,0.0,4.0,84,0.00,CLR,,0.00,WeatherDisplay:10.37,2013-06-17 01:44:00,
2013-06-16 21:59:00,70.2,64.8,29.96,WNW,296,0.0,6.0,83,0.00,CLR,,0.00,WeatherDisplay:10.37,2013-06-17 01:59:00,
2013-06-16 22:14:00,70.7,65.3,29.97,WNW,294,0.0,3.0,83,0.00,CLR,,0.00,WeatherDisplay:10.37,2013-06-17 02:14:00,
2013-06-16 22:29:00,70.7,65.3,29.97,WNW,285,0.0,4.0,83,0.00,CLR,,0.00,WeatherDisplay:10.37,2013-06-17 02:29:00,
2013-06-16 22:45:00,70.4,65.0,29.97,West,281,0.0,2.0,83,0.00,CLR,,0.00,WeatherDisplay:10.37,2013-06-17 02:45:00,
2013-06-16 22:59:00,69.8,64.7,29.97,West,281,0.0,2.0,84,0.00,CLR,,0.00,WeatherDisplay:10.37,2013-06-17 02:59:00,
2013-06-16 23:14:00,69.2,64.5,29.96,West,279,1.0,3.0,85,0.00,CLR,,0.00,WeatherDisplay:10.37,2013-06-17 03:14:00,
2013-06-16 23:29:00,68.8,64.1,29.96,West,266,0.0,5.0,85,0.00,CLR,,0.00,WeatherDisplay:10.37,2013-06-17 03:29:00,
2013-06-16 23:44:00,69.0,64.3,29.96,West,265,0.0,2.0,85,0.00,CLR,,0.00,WeatherDisplay:10.37,2013-06-17 03:44:00,
2013-06-16 23:59:00,68.8,64.1,29.97,West,265,0.0,1.0,85,0.00,CLR,,0.00,WeatherDisplay:10.37,2013-06-17 03:59:00,